weather.gov     
National Weather Service

Regional Weather Roundup
NWS Homepage
This page is being discontinued on March 12, 2014.
The same data is available at this site. Please update your bookmarks.
Thank you, and we apologize for the inconvenience.
Please send an email to SR-SRH.Webmaster@noaa.gov with any concerns.


Current Version
Previous Version:    01  02  03  04  05  06  07  08  09  10  11  12  13  14  15  16  17  18  19  20  21  22  23  24  25  26  27  28  29  30  
   31  32  33  34  35  36  37  38  39  40  41  42  43  44  45  46  47  48  49  50  51  52  53  
[Printable]
047
ASUS44 KMEG 230910
RWRMEG
MEMPHIS CWA HOURLY WEATHER ROUNDUP
NATIONAL WEATHER SERVICE MEMPHIS TN
400 AM CDT SAT AUG 23 2014

...WEST TENNESSEE...

CITY           SKY/WX    TMP DP  RH WIND       PRES   REMARKS
MEMPHIS INTL   CLEAR     80  72  76 SW6       29.99S
NWS MEMPHIS      N/A     76 N/A N/A MISG        N/A
JACKSON        CLEAR     75  72  90 CALM      29.98F
LEXINGTON      CLEAR     73  72  94 CALM      29.99S
SAVANNAH       CLEAR     73  73 100 CALM      30.01S
DYERSBURG      CLEAR     75  66  73 CALM      29.98S
UNION CITY     CLEAR     73  73 100 S3        29.96F
PARIS          CLEAR     72  72 100 CALM      29.99S
HUNTINGDON     CLEAR     72  71  96 CALM      29.99S


...EASTERN ARKANSAS...

CITY           SKY/WX    TMP DP  RH WIND       PRES   REMARKS
JONESBORO      PTCLDY    79  75  87 SW6       29.97S
WEST MEMPHIS   CLEAR     77  75  93 S6        29.97F
BATESVILLE     CLEAR     81  75  83 SW9       29.98S
NEWPORT        CLEAR     78  77  97 S6        29.98S
WALNUT RIDGE   CLEAR     77  73  88 S6        29.96S
BLYTHEVILLE    CLEAR     77  75  93 SW6       29.97F
SEARCY           N/A     76  76 100 CALM        N/A
STUTTGART      CLEAR     79  73  83 S3        29.99S
PINE BLUFF     CLEAR     76  72  87 SW5       29.99S
MONTICELLO     CLEAR     78  72  81 W5        30.00S


...NORTH MISSISSIPPI...

CITY           SKY/WX    TMP DP  RH WIND       PRES   REMARKS
TUPELO         CLEAR     75  71  87 CALM      30.00S
OLIVE BRANCH   CLEAR     73  73 100 S6        30.00S
CLARKSDALE     CLEAR     75  73  94 CALM      30.00F
CORINTH        CLEAR     73  72  94 CALM      30.00R
GRENADA        CLEAR     70  70 100 CALM      30.01S
GREENWOOD      CLEAR     73  71  93 S3        30.01R
COLUMBUS       CLEAR     72  72 100 SE1       30.01R
STARKVILLE     FAIR      68  66  94 CALM      30.01S
GOLDEN TRIANGL CLEAR     72  66  83 CALM      30.02S


...SOUTHEAST MISSOURI...

CITY           SKY/WX    TMP DP  RH WIND       PRES   REMARKS
WEST PLAINS    CLEAR     76  71  85 W3        30.02S
POPLAR BLUFF   PTCLDY    77  72  84 SW5       29.94F
CAPE GIRARDEAU CLEAR     77  74  90 SW5       29.94F


...NORTHWEST ALABAMA...

CITY           SKY/WX    TMP DP  RH WIND       PRES   REMARKS
MUSCLE SHOALS  CLEAR     73  70  90 CALM      30.02S


...MIDDLE TENNESSEE...

CITY           SKY/WX    TMP DP  RH WIND       PRES   REMARKS
NASHVILLE      PTCLDY    76  73  91 CALM      30.00S
CLARKSVILLE    MOCLDY    75  74  96 E5        30.01R
DICKSON        PTCLDY    75  72  88 SW5       30.01S
COLUMBIA       CLEAR     73  73 100 CALM      29.99F
LEWISBURG      PTCLDY    72  69  90 CALM      30.00F


...WESTERN KENTUCKY...

CITY           SKY/WX    TMP DP  RH WIND       PRES   REMARKS
PADUCAH        CLEAR     80  75  84 SW5       29.95S
FORT CAMPBELL  MOCLDY    77  77 100 N15       30.02R


...CENTRAL ARKANSAS...

CITY           SKY/WX    TMP DP  RH WIND       PRES   REMARKS
LITTLE ROCK    CLEAR     78  73  84 CALM      29.99S


SKY/WX REPORTED AS FAIR MEANS FEW OR NO CLOUDS BELOW
12 THOUSAND FEET.





U.S. Dept. of Commerce
NOAA National Weather Service
1325 East West Highway
Silver Spring, MD 20910
E-mail: w-nws.webmaster@noaa.gov
Page last modified: May 16, 2007
NATIONAL WEATHER SERVICE: for Safety, for Work, for Fun - FOR LIFE